OPS 4682 DEB, 20031

Orbit data source: Space-Track

OPS 4682 DEB, 20031 is space debris in LEO originally from a launch on Sat, 03 Apr 1965 UTC launched from the Air Force Western Test Range (AFWTR). Debris objects in space refer to the collection of defunct objects orbiting the Earth. Examples of debris include non-operational satellites, rocket bodies, and fragments generated from explosions, collisions, or faulty payload assembly.

Loading next visibility...
Identifier
20031, 1965-027BB
Orbit
LEO
Country
Flag of USUS
Related business
Manufacturer
Unknown
Mission
Spacecraft
Bus & Motor
Unknown
Mass
Unknown
Launch date (UTC)
1965-04-03 (61 years ago)
Launch vehicle
Unknown
Launch site
Air Force Western Test Range (AFWTR)
Object type
Payload
Rocket body
Debris
Shape & HBR
Unknown shape, 0.1 m
Radar Cross Section
Medium (>0.1 m² and <1 m²)

Expand to show TLE details & history
Last TLE update: 18 hours ago

TLE from 18 hours ago
0 OPS 4682 DEB
1 20031U 65027BB  26150.54404097 -.00000117  00000-0 -42509-3 0  9997
2 20031  90.2287 358.9238 0034336 100.7700 287.8515 12.97939641764923
Epoch: 2026-05-30T13:03Z
TLE epoch observation values (Epoch: 2026-05-30T13:03:25.139Z)
Latitude
28.28558°
Longitude
-85.11195°
Altitude
1,265.686 km
Speed
7.229 km/s
True Right ascension
23h 55m 12s
True Declination
28° 09' 07"
Sunlit
Object was in daylight at epoch
Visualization orbit readout
Latitude
Unknown
Longitude
Unknown
Altitude
Unknown
Speed
Unknown
Apparent Right ascension
Unknown
Apparent Declination
Unknown
Sunlit
N/A
Visualization observer readout
Local Sidereal Time
16:15:46
Azimuth
Unknown
Elevation
Unknown
Doppler factor
Unknown
Orbital elements
Apogee altitude
1,293.551 km
Perigee altitude
1,241.049 km
Semi-major axis
7,645.437 km
Eccentricity
0.00343
Inclination
90.2287°
RAAN
358.9238°
Arg. of periapsis
100.77°
True anomaly
287.47649°
Mean anomaly
287.8515°
Eccentric anomaly
287.66404°
Mean motion
3.24668 °/min
Orbital period
110.88 mins
BSTAR
-0.00042509
Loading maneuver chart data...
Computing Atmospheric mass density...
Loading historical data...
Loading historical data...
Loading historical data...
Loading historical data...
Loading historical data...
Loading historical data...
Loading historical data...

Documentation

Showing up to 5 results
|